When you browse on this site, cookies collect data to enhance your experience and personalize the content and advertising you see.
Visit our Privacy Policy to learn more. By continuing to use the site, you agree to this use of cookies and data.

Stündliche Wetter Nuuk

Heute, 10 August, Montag

Zeit Temperatur Niederschläge Wind Luftdruck Luftfeuchtigkeit
00:00 +4°C° 0.1 mm 4 m/S 752 mmHg 84%
01:00 +3°C° 0.1 mm 4 m/S 752 mmHg 85%
02:00 +3°C° 0.1 mm 4 m/S 752 mmHg 86%
03:00 +3°C° 0.1 mm 4 m/S 753 mmHg 87%
04:00 +3°C° 0.3 mm 4 m/S 753 mmHg 88%
05:00 +3°C° 0.3 mm 4 m/S 754 mmHg 88%
06:00 +3°C° 0.3 mm 4 m/S 754 mmHg 89%
07:00 +3°C° 0.1 mm 4 m/S 754 mmHg 87%
08:00 +4°C° 0.1 mm 4 m/S 754 mmHg 84%
09:00 +4°C° 0.1 mm 3 m/S 754 mmHg 82%
10:00 +4°C° 0 mm 3 m/S 755 mmHg 78%
11:00 +6°C° 0 mm 2 m/S 755 mmHg 75%
12:00 +6°C° 0 mm 2 m/S 755 mmHg 71%
13:00 +6°C° 0 mm 2 m/S 755 mmHg 70%
14:00 +6°C° 0 mm 2 m/S 755 mmHg 69%
15:00 +6°C° 0 mm 2 m/S 755 mmHg 68%
16:00 +6°C° 0 mm 2 m/S 755 mmHg 68%
17:00 +6°C° 0 mm 2 m/S 755 mmHg 69%
18:00 +7°C° 0 mm 1 m/S 755 mmHg 69%
19:00 +5°C° 0 mm 2 m/S 755 mmHg 71%
20:00 +5°C° 0 mm 2 m/S 755 mmHg 74%
21:00 +5°C° 0 mm 2 m/S 755 mmHg 76%
22:00 +5°C° 0 mm 2 m/S 755 mmHg 76%
23:00 +5°C° 0 mm 2 m/S 756 mmHg 75%

Morgen, 11 August, Dienstag

Zeit Temperatur Niederschläge Wind Luftdruck Luftfeuchtigkeit
00:00 +5°C° 0 mm 2 m/S 756 mmHg 75%
01:00 +4°C° 0 mm 3 m/S 755 mmHg 76%
02:00 +4°C° 0 mm 3 m/S 755 mmHg 76%
03:00 +3°C° 0 mm 3 m/S 755 mmHg 77%
04:00 +4°C° 0 mm 3 m/S 755 mmHg 76%
05:00 +4°C° 0 mm 3 m/S 755 mmHg 75%
06:00 +4°C° 0 mm 3 m/S 755 mmHg 73%
07:00 +5°C° 0 mm 3 m/S 754 mmHg 68%
08:00 +7°C° 0 mm 3 m/S 754 mmHg 64%
09:00 +8°C° 0 mm 3 m/S 754 mmHg 59%
10:00 +8°C° 0 mm 3 m/S 753 mmHg 56%
11:00 +9°C° 0 mm 2 m/S 753 mmHg 53%
12:00 +10°C° 0 mm 2 m/S 753 mmHg 49%
13:00 +10°C° 0 mm 2 m/S 752 mmHg 48%
14:00 +10°C° 0 mm 2 m/S 752 mmHg 47%
15:00 +11°C° 0 mm 3 m/S 751 mmHg 46%
16:00 +12°C° 0 mm 2 m/S 751 mmHg 47%
17:00 +12°C° 0 mm 2 m/S 751 mmHg 47%
18:00 +12°C° 0 mm 2 m/S 750 mmHg 48%
19:00 +10°C° 0 mm 2 m/S 749 mmHg 51%
20:00 +11°C° 0 mm 1 m/S 748 mmHg 54%
21:00 +11°C° 0 mm 1 m/S 747 mmHg 57%
22:00 +9°C° 0.7 mm 2 m/S 746 mmHg 62%
23:00 +9°C° 0.7 mm 2 m/S 745 mmHg 68%

übermorgen, 12 August, Mittwoch

Zeit Temperatur Niederschläge Wind Luftdruck Luftfeuchtigkeit
00:00 +9°C° 0.7 mm 3 m/S 743 mmHg 73%
01:00 +8°C° 2.3 mm 4 m/S 742 mmHg 79%
02:00 +8°C° 2.3 mm 5 m/S 741 mmHg 85%
03:00 +7°C° 2.3 mm 5 m/S 739 mmHg 91%
04:00 +8°C° 2.5 mm 5 m/S 739 mmHg 93%
05:00 +8°C° 2.5 mm 4 m/S 738 mmHg 94%
06:00 +8°C° 2.5 mm 4 m/S 737 mmHg 96%
07:00 +8°C° 3.7 mm 5 m/S 738 mmHg 97%
08:00 +8°C° 3.7 mm 7 m/S 738 mmHg 97%
09:00 +8°C° 3.7 mm 9 m/S 739 mmHg 98%
10:00 +9°C° 2.5 mm 8 m/S 740 mmHg 97%
11:00 +8°C° 2.5 mm 7 m/S 741 mmHg 97%
12:00 +8°C° 2.5 mm 6 m/S 742 mmHg 96%
13:00 +8°C° 0.6 mm 5 m/S 743 mmHg 95%
14:00 +7°C° 0.6 mm 5 m/S 744 mmHg 94%
15:00 +7°C° 0.6 mm 4 m/S 745 mmHg 93%
16:00 +7°C° 0 mm 4 m/S 747 mmHg 91%
17:00 +7°C° 0 mm 4 m/S 748 mmHg 89%
18:00 +7°C° 0 mm 3 m/S 750 mmHg 87%
19:00 +7°C° 0.1 mm 3 m/S 751 mmHg 89%
20:00 +6°C° 0.1 mm 4 m/S 752 mmHg 91%
21:00 +6°C° 0.1 mm 4 m/S 754 mmHg 94%
22:00 +5°C° 0 mm 3 m/S 755 mmHg 93%
23:00 +5°C° 0 mm 3 m/S 756 mmHg 92%

13 August, Donnerstag

Zeit Temperatur Niederschläge Wind Luftdruck Luftfeuchtigkeit
00:00 +5°C° 0 mm 3 m/S 757 mmHg 92%
01:00 +4°C° 0 mm 3 m/S 757 mmHg 92%
02:00 +4°C° 0 mm 3 m/S 757 mmHg 92%
03:00 +5°C° 0 mm 2 m/S 758 mmHg 92%
04:00 +4°C° 0 mm 3 m/S 758 mmHg 91%
05:00 +4°C° 0 mm 3 m/S 758 mmHg 90%
06:00 +4°C° 0 mm 4 m/S 759 mmHg 88%
07:00 +5°C° 0 mm 4 m/S 759 mmHg 84%
08:00 +5°C° 0 mm 4 m/S 759 mmHg 79%
09:00 +6°C° 0 mm 4 m/S 759 mmHg 74%
10:00 +7°C° 0 mm 4 m/S 759 mmHg 70%
11:00 +8°C° 0 mm 4 m/S 758 mmHg 66%
12:00 +10°C° 0 mm 4 m/S 758 mmHg 62%
13:00 +10°C° 0 mm 4 m/S 758 mmHg 60%
14:00 +9°C° 0 mm 5 m/S 758 mmHg 59%
15:00 +10°C° 0 mm 5 m/S 758 mmHg 57%
16:00 +10°C° 0 mm 5 m/S 758 mmHg 57%
17:00 +10°C° 0 mm 6 m/S 758 mmHg 58%
18:00 +10°C° 0 mm 6 m/S 758 mmHg 58%
19:00 +8°C° 0 mm 6 m/S 757 mmHg 63%
20:00 +7°C° 0 mm 5 m/S 757 mmHg 68%
21:00 +6°C° 0 mm 5 m/S 757 mmHg 73%
22:00 +6°C° 0 mm 4 m/S 757 mmHg 74%
23:00 +5°C° 0 mm 4 m/S 757 mmHg 75%

14 August, Freitag

Zeit Temperatur Niederschläge Wind Luftdruck Luftfeuchtigkeit
00:00 +5°C° 0 mm 4 m/S 757 mmHg 76%
01:00 +5°C° 0 mm 3 m/S 756 mmHg 76%
02:00 +5°C° 0 mm 3 m/S 756 mmHg 75%
03:00 +5°C° 0 mm 2 m/S 756 mmHg 75%
04:00 +6°C° 0 mm 2 m/S 756 mmHg 74%
05:00 +6°C° 0 mm 2 m/S 756 mmHg 73%
06:00 +8°C° 0 mm 1 m/S 755 mmHg 72%
07:00 +9°C° 0 mm 1 m/S 755 mmHg 67%
08:00 +9°C° 0 mm 1 m/S 755 mmHg 61%
09:00 +9°C° 0 mm 0 m/S 755 mmHg 56%
10:00 +10°C° 0 mm 1 m/S 754 mmHg 55%
11:00 +11°C° 0 mm 1 m/S 754 mmHg 53%
12:00 +11°C° 0 mm 1 m/S 754 mmHg 52%
13:00 +11°C° 0 mm 1 m/S 754 mmHg 54%
14:00 +11°C° 0 mm 1 m/S 754 mmHg 56%
15:00 +10°C° 0 mm 1 m/S 753 mmHg 58%
16:00 +10°C° 0 mm 1 m/S 753 mmHg 61%
17:00 +10°C° 0 mm 1 m/S 753 mmHg 64%
18:00 +9°C° 0 mm 1 m/S 753 mmHg 68%
19:00 +9°C° 0 mm 1 m/S 753 mmHg 70%
20:00 +9°C° 0 mm 1 m/S 753 mmHg 72%
21:00 +8°C° 0 mm 2 m/S 753 mmHg 75%
22:00 +7°C° 0 mm 2 m/S 753 mmHg 77%
23:00 +7°C° 0 mm 2 m/S 753 mmHg 79%

15 August, Samstag

Zeit Temperatur Niederschläge Wind Luftdruck Luftfeuchtigkeit
00:00 +7°C° 0 mm 3 m/S 753 mmHg 80%
01:00 +7°C° 0 mm 3 m/S 753 mmHg 83%
02:00 +5°C° 0 mm 4 m/S 753 mmHg 85%
03:00 +5°C° 0 mm 5 m/S 753 mmHg 87%
04:00 +5°C° 0 mm 5 m/S 753 mmHg 88%
05:00 +5°C° 0 mm 5 m/S 753 mmHg 89%
06:00 +5°C° 0 mm 5 m/S 753 mmHg 90%
07:00 +6°C° 0 mm 5 m/S 754 mmHg 86%
08:00 +6°C° 0 mm 5 m/S 754 mmHg 82%
09:00 +7°C° 0 mm 5 m/S 754 mmHg 78%
10:00 +8°C° 0 mm 5 m/S 754 mmHg 71%
11:00 +8°C° 0 mm 5 m/S 754 mmHg 65%
12:00 +9°C° 0 mm 5 m/S 754 mmHg 58%
13:00 +9°C° 0 mm 6 m/S 754 mmHg 56%
14:00 +9°C° 0 mm 6 m/S 754 mmHg 54%
15:00 +10°C° 0 mm 6 m/S 754 mmHg 52%
16:00 +9°C° 0 mm 7 m/S 754 mmHg 54%
17:00 +9°C° 0 mm 7 m/S 754 mmHg 56%
18:00 +9°C° 0 mm 8 m/S 755 mmHg 58%
19:00 +8°C° 0 mm 7 m/S 755 mmHg 66%
20:00 +6°C° 0 mm 7 m/S 755 mmHg 74%
21:00 +5°C° 0 mm 6 m/S 755 mmHg 82%
22:00 +4°C° 0 mm 6 m/S 755 mmHg 83%
23:00 +5°C° 0 mm 5 m/S 755 mmHg 84%
Mehr zeigen